Time,TemperatureF,DewpointF,PressureIn,WindDirection,WindDirectionDegrees,WindSpeedMPH,WindSpeedGustMPH,Humidity,HourlyPrecipIn,Conditions,Clouds,dailyrainin,SoftwareType,DateUTC
2013-02-01 00:02:00,12.0,0.0,30.36,North,350,10.0,15.0,56,-99.99,,,-99.99,,2013-02-01 06:02:00,
2013-02-01 00:11:00,12.0,0.0,30.36,North,355,10.0,13.0,56,-99.99,,,-99.99,,2013-02-01 06:11:00,
2013-02-01 00:22:00,12.0,0.0,30.36,North,355,10.0,13.0,56,-99.99,,,-99.99,,2013-02-01 06:22:00,
2013-02-01 00:32:00,12.0,0.0,30.35,North,350,8.0,10.0,57,-99.99,,,-99.99,,2013-02-01 06:32:00,
2013-02-01 00:42:00,12.0,0.0,30.36,North,0,7.0,11.0,59,-99.99,,,-99.99,,2013-02-01 06:42:00,
2013-02-01 00:52:00,12.0,0.0,30.36,North,0,7.0,11.0,59,-99.99,,,-99.99,,2013-02-01 06:52:00,
2013-02-01 01:02:00,11.0,0.0,30.37,NW,310,4.0,8.0,60,-99.99,,,-99.99,,2013-02-01 07:02:00,
2013-02-01 01:12:00,11.0,0.0,30.36,North,0,7.0,10.0,60,-99.99,,,-99.99,,2013-02-01 07:12:00,
2013-02-01 01:22:00,11.0,0.0,30.36,North,0,7.0,10.0,60,-99.99,,,-99.99,,2013-02-01 07:22:00,
2013-02-01 01:32:00,11.0,0.0,30.36,North,355,8.0,14.0,61,-99.99,,,-99.99,,2013-02-01 07:32:00,
2013-02-01 01:42:00,11.0,0.0,30.35,North,0,10.0,13.0,61,-99.99,,,-99.99,,2013-02-01 07:42:00,
2013-02-01 01:51:00,10.0,-1.0,30.36,NNW,330,6.0,9.0,61,-99.99,,,-99.99,,2013-02-01 07:51:00,
2013-02-01 02:01:00,10.0,-1.0,30.36,NNW,330,6.0,9.0,61,-99.99,,,-99.99,,2013-02-01 08:01:00,
2013-02-01 02:11:00,10.0,0.0,30.36,North,0,6.0,9.0,63,-99.99,,,-99.99,,2013-02-01 08:11:00,
2013-02-01 02:21:00,10.0,0.0,30.36,North,0,6.0,9.0,63,-99.99,,,-99.99,,2013-02-01 08:21:00,
2013-02-01 02:32:00,10.0,0.0,30.36,NNW,335,7.0,12.0,62,-99.99,,,-99.99,,2013-02-01 08:32:00,
2013-02-01 02:42:00,10.0,-1.0,30.36,NNW,345,7.0,10.0,62,-99.99,,,-99.99,,2013-02-01 08:42:00,
2013-02-01 02:52:00,10.0,-1.0,30.36,NNW,345,7.0,10.0,62,-99.99,,,-99.99,,2013-02-01 08:52:00,
2013-02-01 03:01:00,9.0,-1.0,30.36,North,350,9.0,11.0,62,-99.99,,,-99.99,,2013-02-01 09:01:00,
2013-02-01 03:11:00,9.0,-1.0,30.36,North,0,9.0,12.0,63,-99.99,,,-99.99,,2013-02-01 09:11:00,
2013-02-01 03:21:00,9.0,-1.0,30.36,North,0,9.0,12.0,63,-99.99,,,-99.99,,2013-02-01 09:21:00,
2013-02-01 03:32:00,9.0,-1.0,30.36,North,350,6.0,9.0,63,-99.99,,,-99.99,,2013-02-01 09:32:00,
2013-02-01 03:42:00,9.0,-1.0,30.36,NW,325,4.0,9.0,65,-99.99,,,-99.99,,2013-02-01 09:42:00,
2013-02-01 03:51:00,9.0,-1.0,30.36,NW,325,4.0,9.0,65,-99.99,,,-99.99,,2013-02-01 09:51:00,
2013-02-01 04:01:00,8.0,-1.0,30.36,WNW,290,3.0,5.0,67,-99.99,,,-99.99,,2013-02-01 10:01:00,
2013-02-01 04:11:00,8.0,0.0,30.36,NW,315,3.0,6.0,67,-99.99,,,-99.99,,2013-02-01 10:11:00,
2013-02-01 04:21:00,8.0,0.0,30.36,NW,315,3.0,6.0,67,-99.99,,,-99.99,,2013-02-01 10:21:00,
2013-02-01 04:32:00,8.0,0.0,30.36,NW,325,2.0,5.0,69,-99.99,,,-99.99,,2013-02-01 10:32:00,
2013-02-01 04:42:00,8.0,0.0,30.36,NW,305,3.0,5.0,70,-99.99,,,-99.99,,2013-02-01 10:42:00,
2013-02-01 04:52:00,8.0,0.0,30.35,West,270,3.0,4.0,71,-99.99,,,-99.99,,2013-02-01 10:52:00,
2013-02-01 05:02:00,8.0,0.0,30.35,West,270,3.0,4.0,71,-99.99,,,-99.99,,2013-02-01 11:02:00,
2013-02-01 05:11:00,7.0,0.0,30.36,WNW,285,4.0,5.0,72,-99.99,,,-99.99,,2013-02-01 11:11:00,
2013-02-01 05:22:00,7.0,0.0,30.36,WNW,285,4.0,5.0,72,-99.99,,,-99.99,,2013-02-01 11:22:00,
2013-02-01 05:32:00,7.0,0.0,30.36,West,280,4.0,6.0,71,-99.99,,,-99.99,,2013-02-01 11:32:00,
2013-02-01 05:42:00,8.0,0.0,30.36,West,265,3.0,5.0,70,-99.99,,,-99.99,,2013-02-01 11:42:00,
2013-02-01 05:53:00,8.0,0.0,30.36,West,265,3.0,5.0,70,-99.99,,,-99.99,,2013-02-01 11:53:00,
2013-02-01 06:02:00,8.0,-1.0,30.35,NW,305,3.0,5.0,68,-99.99,,,-99.99,,2013-02-01 12:02:00,
2013-02-01 06:12:00,7.0,-1.0,30.36,WNW,285,3.0,5.0,68,-99.99,,,-99.99,,2013-02-01 12:12:00,
2013-02-01 06:22:00,7.0,-1.0,30.36,WNW,285,3.0,5.0,68,-99.99,,,-99.99,,2013-02-01 12:22:00,
2013-02-01 06:32:00,8.0,-1.0,30.36,NW,320,3.0,5.0,67,-99.99,,,-99.99,,2013-02-01 12:32:00,
2013-02-01 06:42:00,8.0,-1.0,30.35,NNW,330,3.0,5.0,66,-99.99,,,-99.99,,2013-02-01 12:42:00,
2013-02-01 06:52:00,8.0,-1.0,30.35,NNW,330,3.0,5.0,66,-99.99,,,-99.99,,2013-02-01 12:52:00,
2013-02-01 07:02:00,8.0,-1.0,30.35,NNE,15,3.0,5.0,65,-99.99,,,-99.99,,2013-02-01 13:02:00,
2013-02-01 07:11:00,9.0,-1.0,30.35,NNE,25,4.0,5.0,64,-99.99,,,-99.99,,2013-02-01 13:11:00,
2013-02-01 07:22:00,9.0,-1.0,30.35,NNE,25,4.0,5.0,64,-99.99,,,-99.99,,2013-02-01 13:22:00,
2013-02-01 07:32:00,9.0,-1.0,30.35,North,0,3.0,5.0,64,-99.99,,,-99.99,,2013-02-01 13:32:00,
2013-02-01 07:42:00,9.0,-1.0,30.35,North,0,3.0,4.0,64,-99.99,,,-99.99,,2013-02-01 13:42:00,
2013-02-01 07:52:00,9.0,-1.0,30.35,North,0,3.0,4.0,64,-99.99,,,-99.99,,2013-02-01 13:52:00,
2013-02-01 08:03:00,9.0,-2.0,30.36,NNE,30,2.0,4.0,61,-99.99,,,-99.99,,2013-02-01 14:03:00,
2013-02-01 08:11:00,8.0,-1.0,30.37,SW,230,3.0,4.0,66,-99.99,,,-99.99,,2013-02-01 14:11:00,
2013-02-01 08:21:00,8.0,-1.0,30.37,SW,230,3.0,4.0,66,-99.99,,,-99.99,,2013-02-01 14:21:00,
2013-02-01 08:32:00,7.0,-1.0,30.37,South,170,3.0,5.0,69,-99.99,,,-99.99,,2013-02-01 14:32:00,
2013-02-01 08:42:00,8.0,0.0,30.38,SSW,205,3.0,5.0,67,-99.99,,,-99.99,,2013-02-01 14:42:00,
2013-02-01 08:52:00,8.0,0.0,30.38,SSW,205,3.0,5.0,67,-99.99,,,-99.99,,2013-02-01 14:52:00,
2013-02-01 09:02:00,9.0,1.0,30.40,SW,235,10.0,12.0,67,-99.99,,,-99.99,,2013-02-01 15:02:00,
2013-02-01 09:12:00,10.0,1.0,30.40,WSW,245,11.0,15.0,66,-99.99,,,-99.99,,2013-02-01 15:12:00,
2013-02-01 09:22:00,10.0,1.0,30.40,WSW,245,11.0,15.0,66,-99.99,,,-99.99,,2013-02-01 15:22:00,
2013-02-01 09:33:00,11.0,1.0,30.41,WSW,240,9.0,15.0,62,-99.99,,,-99.99,,2013-02-01 15:33:00,
2013-02-01 09:42:00,12.0,1.0,30.41,WSW,240,11.0,13.0,60,-99.99,,,-99.99,,2013-02-01 15:42:00,
2013-02-01 09:52:00,12.0,1.0,30.41,WSW,240,11.0,13.0,60,-99.99,,,-99.99,,2013-02-01 15:52:00,
2013-02-01 10:03:00,13.0,0.0,30.41,WSW,240,9.0,12.0,55,-99.99,,,-99.99,,2013-02-01 16:03:00,
2013-02-01 10:11:00,13.0,-1.0,30.41,SW,235,5.0,9.0,53,-99.99,,,-99.99,,2013-02-01 16:11:00,
2013-02-01 10:22:00,13.0,-1.0,30.41,SW,235,5.0,9.0,53,-99.99,,,-99.99,,2013-02-01 16:22:00,
2013-02-01 10:33:00,15.0,-1.0,30.39,NNW,345,1.0,4.0,50,-99.99,,,-99.99,,2013-02-01 16:33:00,
2013-02-01 10:43:00,15.0,0.0,30.38,SSW,195,4.0,6.0,52,-99.99,,,-99.99,,2013-02-01 16:43:00,
2013-02-01 10:52:00,15.0,0.0,30.38,SSW,195,4.0,6.0,52,-99.99,,,-99.99,,2013-02-01 16:52:00,
2013-02-01 11:02:00,15.0,0.0,30.38,South,185,5.0,8.0,51,-99.99,,,-99.99,,2013-02-01 17:02:00,
2013-02-01 11:12:00,16.0,0.0,30.38,SW,230,5.0,6.0,50,-99.99,,,-99.99,,2013-02-01 17:12:00,
2013-02-01 11:22:00,16.0,0.0,30.38,SW,230,5.0,6.0,50,-99.99,,,-99.99,,2013-02-01 17:22:00,
2013-02-01 11:32:00,17.0,1.0,30.38,WSW,250,2.0,5.0,48,-99.99,,,-99.99,,2013-02-01 17:32:00,
2013-02-01 11:42:00,17.0,0.0,30.37,ESE,105,2.0,5.0,47,-99.99,,,-99.99,,2013-02-01 17:42:00,
2013-02-01 11:52:00,17.0,0.0,30.37,ESE,105,2.0,5.0,47,-99.99,,,-99.99,,2013-02-01 17:52:00,
2013-02-01 12:03:00,17.0,-1.0,30.36,SSE,155,2.0,6.0,44,-99.99,,,-99.99,,2013-02-01 18:03:00,
2013-02-01 12:12:00,19.0,2.0,30.36,SE,135,6.0,10.0,47,-99.99,,,-99.99,,2013-02-01 18:12:00,
2013-02-01 12:22:00,19.0,2.0,30.36,SE,135,6.0,10.0,47,-99.99,,,-99.99,,2013-02-01 18:22:00,
2013-02-01 12:32:00,19.0,-1.0,30.35,South,175,7.0,10.0,41,-99.99,,,-99.99,,2013-02-01 18:32:00,
2013-02-01 12:42:00,20.0,-1.0,30.34,SSE,155,5.0,9.0,39,-99.99,,,-99.99,,2013-02-01 18:42:00,
2013-02-01 12:52:00,20.0,-1.0,30.34,SSE,155,5.0,9.0,39,-99.99,,,-99.99,,2013-02-01 18:52:00,
2013-02-01 13:02:00,21.0,2.0,30.33,South,190,7.0,9.0,42,-99.99,,,-99.99,,2013-02-01 19:02:00,
2013-02-01 13:12:00,22.0,2.0,30.32,South,190,6.0,10.0,41,-99.99,,,-99.99,,2013-02-01 19:12:00,
2013-02-01 13:21:00,22.0,2.0,30.32,South,190,6.0,10.0,41,-99.99,,,-99.99,,2013-02-01 19:21:00,
2013-02-01 13:32:00,23.0,3.0,30.31,SW,220,5.0,12.0,41,-99.99,,,-99.99,,2013-02-01 19:32:00,
2013-02-01 13:42:00,24.0,3.0,30.30,SSW,195,7.0,10.0,41,-99.99,,,-99.99,,2013-02-01 19:42:00,
2013-02-01 13:51:00,24.0,3.0,30.30,SSW,195,7.0,10.0,41,-99.99,,,-99.99,,2013-02-01 19:51:00,
2013-02-01 14:02:00,24.0,3.0,30.29,SSW,200,5.0,10.0,39,-99.99,,,-99.99,,2013-02-01 20:02:00,
2013-02-01 14:11:00,25.0,5.0,30.29,SE,140,4.0,9.0,41,-99.99,,,-99.99,,2013-02-01 20:11:00,
2013-02-01 14:21:00,25.0,5.0,30.29,SE,140,4.0,9.0,41,-99.99,,,-99.99,,2013-02-01 20:21:00,
2013-02-01 14:32:00,26.0,5.0,30.28,SSW,195,6.0,10.0,39,-99.99,,,-99.99,,2013-02-01 20:32:00,
2013-02-01 14:42:00,27.0,8.0,30.28,SSW,205,11.0,13.0,44,-99.99,,,-99.99,,2013-02-01 20:42:00,
2013-02-01 14:52:00,27.0,8.0,30.28,SSW,205,11.0,13.0,44,-99.99,,,-99.99,,2013-02-01 20:52:00,
2013-02-01 15:02:00,28.0,8.0,30.27,South,180,6.0,12.0,42,-99.99,,,-99.99,,2013-02-01 21:02:00,
2013-02-01 15:12:00,29.0,8.0,30.26,WSW,240,6.0,11.0,40,-99.99,,,-99.99,,2013-02-01 21:12:00,
2013-02-01 15:21:00,29.0,8.0,30.26,WSW,240,6.0,11.0,40,-99.99,,,-99.99,,2013-02-01 21:21:00,
2013-02-01 15:32:00,30.0,11.0,30.26,SW,230,11.0,14.0,44,-99.99,,,-99.99,,2013-02-01 21:32:00,
2013-02-01 15:42:00,29.0,8.0,30.25,SSW,200,9.0,14.0,39,-99.99,,,-99.99,,2013-02-01 21:42:00,
2013-02-01 15:52:00,29.0,8.0,30.25,SSW,200,9.0,14.0,39,-99.99,,,-99.99,,2013-02-01 21:52:00,
2013-02-01 16:02:00,30.0,8.0,30.23,South,175,10.0,12.0,39,-99.99,,,-99.99,,2013-02-01 22:02:00,
2013-02-01 16:11:00,30.0,9.0,30.23,South,175,8.0,13.0,41,-99.99,,,-99.99,,2013-02-01 22:11:00,
2013-02-01 16:21:00,30.0,9.0,30.23,South,175,8.0,13.0,41,-99.99,,,-99.99,,2013-02-01 22:21:00,
2013-02-01 16:32:00,31.0,10.0,30.23,South,180,7.0,10.0,42,-99.99,,,-99.99,,2013-02-01 22:32:00,
2013-02-01 16:42:00,31.0,12.0,30.22,South,185,10.0,11.0,44,-99.99,,,-99.99,,2013-02-01 22:42:00,
2013-02-01 16:51:00,31.0,12.0,30.22,South,185,10.0,11.0,44,-99.99,,,-99.99,,2013-02-01 22:51:00,
2013-02-01 17:01:00,31.0,13.0,30.22,SSE,160,8.0,12.0,45,-99.99,,,-99.99,,2013-02-01 23:01:00,
2013-02-01 17:11:00,31.0,11.0,30.21,South,175,9.0,12.0,43,-99.99,,,-99.99,,2013-02-01 23:11:00,
2013-02-01 17:21:00,31.0,11.0,30.21,South,175,9.0,12.0,43,-99.99,,,-99.99,,2013-02-01 23:21:00,
2013-02-01 17:32:00,31.0,12.0,30.21,SSE,165,7.0,10.0,44,-99.99,,,-99.99,,2013-02-01 23:32:00,
2013-02-01 17:42:00,31.0,13.0,30.20,SSE,165,7.0,9.0,45,-99.99,,,-99.99,,2013-02-01 23:42:00,
2013-02-01 17:52:00,31.0,13.0,30.20,SSE,165,7.0,9.0,45,-99.99,,,-99.99,,2013-02-01 23:52:00,
2013-02-01 18:02:00,31.0,13.0,30.19,South,185,8.0,10.0,46,-99.99,,,-99.99,,2013-02-02 00:02:00,
2013-02-01 18:11:00,31.0,14.0,30.19,South,185,7.0,10.0,47,-99.99,,,-99.99,,2013-02-02 00:11:00,
2013-02-01 18:21:00,31.0,14.0,30.19,South,185,7.0,10.0,47,-99.99,,,-99.99,,2013-02-02 00:21:00,
2013-02-01 18:32:00,31.0,14.0,30.18,South,185,7.0,12.0,47,-99.99,,,-99.99,,2013-02-02 00:32:00,
2013-02-01 18:42:00,31.0,14.0,30.17,South,175,7.0,12.0,47,-99.99,,,-99.99,,2013-02-02 00:42:00,
2013-02-01 18:52:00,31.0,14.0,30.17,South,175,7.0,12.0,47,-99.99,,,-99.99,,2013-02-02 00:52:00,
2013-02-01 19:02:00,31.0,12.0,30.16,South,175,11.0,16.0,45,-99.99,,,-99.99,,2013-02-02 01:02:00,
2013-02-01 19:11:00,31.0,12.0,30.15,South,180,11.0,17.0,44,-99.99,,,-99.99,,2013-02-02 01:11:00,
2013-02-01 19:21:00,31.0,12.0,30.15,South,180,11.0,17.0,44,-99.99,,,-99.99,,2013-02-02 01:21:00,
2013-02-01 19:32:00,31.0,11.0,30.15,South,180,11.0,15.0,44,-99.99,,,-99.99,,2013-02-02 01:32:00,
2013-02-01 19:42:00,30.0,11.0,30.15,South,175,9.0,16.0,44,-99.99,,,-99.99,,2013-02-02 01:42:00,
2013-02-01 19:52:00,30.0,11.0,30.15,South,175,9.0,16.0,44,-99.99,,,-99.99,,2013-02-02 01:52:00,
2013-02-01 20:01:00,31.0,11.0,30.15,South,180,8.0,13.0,43,-99.99,,,-99.99,,2013-02-02 02:01:00,
2013-02-01 20:11:00,31.0,12.0,30.15,South,180,7.0,11.0,45,-99.99,,,-99.99,,2013-02-02 02:11:00,
2013-02-01 20:21:00,31.0,12.0,30.15,South,180,7.0,11.0,45,-99.99,,,-99.99,,2013-02-02 02:21:00,
2013-02-01 20:32:00,31.0,10.0,30.15,South,190,9.0,14.0,41,-99.99,,,-99.99,,2013-02-02 02:32:00,
2013-02-01 20:42:00,31.0,11.0,30.13,South,175,10.0,15.0,43,-99.99,,,-99.99,,2013-02-02 02:42:00,
2013-02-01 20:52:00,31.0,11.0,30.13,South,175,10.0,15.0,43,-99.99,,,-99.99,,2013-02-02 02:52:00,
2013-02-01 21:02:00,31.0,12.0,30.11,South,170,12.0,17.0,44,-99.99,,,-99.99,,2013-02-02 03:02:00,
2013-02-01 21:11:00,31.0,11.0,30.14,South,190,11.0,16.0,43,-99.99,,,-99.99,,2013-02-02 03:11:00,
2013-02-01 21:22:00,31.0,11.0,30.14,South,190,11.0,16.0,43,-99.99,,,-99.99,,2013-02-02 03:22:00,
2013-02-01 21:32:00,31.0,12.0,30.15,SSW,210,5.0,12.0,43,-99.99,,,-99.99,,2013-02-02 03:32:00,
2013-02-01 21:42:00,32.0,11.0,30.15,SSW,200,10.0,13.0,42,-99.99,,,-99.99,,2013-02-02 03:42:00,
2013-02-01 21:52:00,32.0,11.0,30.15,SSW,200,10.0,13.0,42,-99.99,,,-99.99,,2013-02-02 03:52:00,
2013-02-01 22:02:00,32.0,12.0,30.15,SSW,195,7.0,12.0,43,-99.99,,,-99.99,,2013-02-02 04:02:00,
2013-02-01 22:11:00,32.0,12.0,30.16,SSW,205,6.0,11.0,44,-99.99,,,-99.99,,2013-02-02 04:11:00,
2013-02-01 22:21:00,32.0,12.0,30.16,SSW,205,6.0,11.0,44,-99.99,,,-99.99,,2013-02-02 04:21:00,
2013-02-01 22:32:00,32.0,12.0,30.17,SW,220,8.0,13.0,44,-99.99,,,-99.99,,2013-02-02 04:32:00,
2013-02-01 22:42:00,31.0,13.0,30.17,SW,230,7.0,11.0,46,-99.99,,,-99.99,,2013-02-02 04:42:00,
2013-02-01 22:51:00,31.0,13.0,30.17,SW,230,7.0,11.0,46,-99.99,,,-99.99,,2013-02-02 04:51:00,
2013-02-01 23:03:00,31.0,12.0,30.17,SSW,200,7.0,10.0,45,-99.99,,,-99.99,,2013-02-02 05:03:00,
2013-02-01 23:12:00,31.0,12.0,30.17,SSW,195,8.0,10.0,46,-99.99,,,-99.99,,2013-02-02 05:12:00,
2013-02-01 23:22:00,31.0,12.0,30.17,SSW,195,8.0,10.0,46,-99.99,,,-99.99,,2013-02-02 05:22:00,
2013-02-01 23:33:00,31.0,12.0,30.15,South,190,11.0,14.0,45,-99.99,,,-99.99,,2013-02-02 05:33:00,
2013-02-01 23:41:00,31.0,13.0,30.15,South,190,14.0,17.0,46,-99.99,,,-99.99,,2013-02-02 05:41:00,
2013-02-01 23:52:00,31.0,13.0,30.15,South,190,14.0,17.0,46,-99.99,,,-99.99,,2013-02-02 05:52:00,